When you browse on this site, cookies collect data to enhance your experience and personalize the content and advertising you see.
Visit our Privacy Policy to learn more. By continuing to use the site, you agree to this use of cookies and data.
  • In Germany
  • List of Countries
  • For 7 days
  • Water Temperature
  • Satellite Maps
  • Weather Map
  • Weather Widgets
  • user-avatar
    Login

    Hourly Weather Ghazni

    Today, 19 July, Friday

    Time Temperature Precipitation Wind Pressure Humidity
    00:00 +25°C° 0.4 mm 3 mps 587 mmHg 54%
    01:00 +24°C° 0.4 mm 2 mps 586 mmHg 58%
    02:00 +24°C° 0.4 mm 2 mps 586 mmHg 61%
    03:00 +23°C° 0 mm 1 mps 586 mmHg 62%
    04:00 +23°C° 0 mm 1 mps 586 mmHg 64%
    05:00 +22°C° 0 mm 1 mps 586 mmHg 63%
    06:00 +23°C° 0 mm 1 mps 587 mmHg 58%
    07:00 +24°C° 0 mm 1 mps 587 mmHg 53%
    08:00 +25°C° 0 mm 1 mps 588 mmHg 48%
    09:00 +26°C° 0 mm 1 mps 588 mmHg 40%
    10:00 +28°C° 0 mm 1 mps 588 mmHg 33%
    11:00 +29°C° 0 mm 1 mps 589 mmHg 22%
    12:00 +31°C° 0 mm 2 mps 589 mmHg 19%
    13:00 +32°C° 0 mm 2 mps 589 mmHg 15%
    14:00 +34°C° 0 mm 2 mps 589 mmHg 12%
    15:00 +34°C° 0 mm 2 mps 589 mmHg 12%
    16:00 +35°C° 0 mm 3 mps 588 mmHg 11%
    17:00 +35°C° 0 mm 3 mps 588 mmHg 11%
    18:00 +33°C° 0 mm 4 mps 588 mmHg 18%
    19:00 +32°C° 0 mm 5 mps 588 mmHg 25%
    20:00 +29°C° 0 mm 6 mps 588 mmHg 32%
    21:00 +28°C° 0.6 mm 5 mps 588 mmHg 40%
    22:00 +26°C° 0.6 mm 4 mps 588 mmHg 48%
    23:00 +25°C° 0.6 mm 3 mps 588 mmHg 56%

    Tomorrow, 20 July, Saturday

    Time Temperature Precipitation Wind Pressure Humidity
    00:00 +25°C° 0.4 mm 2 mps 588 mmHg 57%
    01:00 +25°C° 0.4 mm 1 mps 588 mmHg 58%
    02:00 +24°C° 0.4 mm 1 mps 588 mmHg 59%
    03:00 +24°C° 0 mm 1 mps 588 mmHg 60%
    04:00 +23°C° 0 mm 1 mps 587 mmHg 60%
    05:00 +21°C° 0 mm 0 mps 587 mmHg 61%
    06:00 +24°C° 0 mm 1 mps 588 mmHg 57%
    07:00 +25°C° 0 mm 1 mps 588 mmHg 52%
    08:00 +25°C° 0 mm 1 mps 589 mmHg 48%
    09:00 +27°C° 0 mm 1 mps 589 mmHg 43%
    10:00 +28°C° 0 mm 1 mps 589 mmHg 38%
    11:00 +29°C° 0 mm 1 mps 590 mmHg 33%
    12:00 +30°C° 0 mm 2 mps 590 mmHg 29%
    13:00 +31°C° 0 mm 2 mps 590 mmHg 25%
    14:00 +32°C° 0 mm 2 mps 590 mmHg 22%
    15:00 +34°C° 0 mm 2 mps 590 mmHg 21%
    16:00 +34°C° 0 mm 3 mps 590 mmHg 19%
    17:00 +34°C° 0 mm 3 mps 590 mmHg 18%
    18:00 +33°C° 0 mm 4 mps 589 mmHg 24%
    19:00 +32°C° 0 mm 5 mps 589 mmHg 29%
    20:00 +29°C° 0 mm 6 mps 589 mmHg 34%
    21:00 +28°C° 0 mm 5 mps 589 mmHg 38%
    22:00 +28°C° 0 mm 4 mps 589 mmHg 42%
    23:00 +27°C° 0 mm 3 mps 589 mmHg 46%

    Day after tomorrow, 21 July, Sunday

    Time Temperature Precipitation Wind Pressure Humidity
    00:00 +26°C° 0 mm 3 mps 589 mmHg 49%
    01:00 +26°C° 0 mm 2 mps 589 mmHg 51%
    02:00 +25°C° 0 mm 2 mps 588 mmHg 53%
    03:00 +25°C° 0 mm 1 mps 588 mmHg 53%
    04:00 +24°C° 0 mm 1 mps 588 mmHg 53%
    05:00 +24°C° 0 mm 1 mps 588 mmHg 53%
    06:00 +25°C° 0 mm 1 mps 588 mmHg 48%
    07:00 +26°C° 0 mm 1 mps 589 mmHg 43%
    08:00 +26°C° 0 mm 1 mps 589 mmHg 38%
    09:00 +28°C° 0 mm 1 mps 589 mmHg 33%
    10:00 +29°C° 0 mm 1 mps 590 mmHg 28%
    11:00 +30°C° 0 mm 1 mps 590 mmHg 23%
    12:00 +31°C° 0 mm 1 mps 590 mmHg 20%
    13:00 +32°C° 0 mm 2 mps 590 mmHg 16%
    14:00 +34°C° 0 mm 2 mps 590 mmHg 13%
    15:00 +35°C° 0 mm 2 mps 590 mmHg 12%
    16:00 +35°C° 0 mm 2 mps 590 mmHg 11%
    17:00 +36°C° 0 mm 2 mps 589 mmHg 10%
    18:00 +34°C° 0 mm 2 mps 589 mmHg 12%
    19:00 +32°C° 0 mm 2 mps 589 mmHg 14%
    20:00 +31°C° 0 mm 1 mps 589 mmHg 16%
    21:00 +30°C° 0 mm 2 mps 589 mmHg 24%
    22:00 +29°C° 0 mm 2 mps 589 mmHg 32%
    23:00 +28°C° 0 mm 2 mps 589 mmHg 40%

    22 July, Monday

    Time Temperature Precipitation Wind Pressure Humidity
    00:00 +27°C° 0 mm 2 mps 589 mmHg 41%
    01:00 +26°C° 0 mm 2 mps 588 mmHg 41%
    02:00 +26°C° 0 mm 2 mps 588 mmHg 41%
    03:00 +25°C° 0 mm 2 mps 588 mmHg 38%
    04:00 +24°C° 0 mm 2 mps 587 mmHg 35%
    05:00 +24°C° 0 mm 2 mps 587 mmHg 32%
    06:00 +25°C° 0 mm 2 mps 588 mmHg 28%
    07:00 +26°C° 0 mm 2 mps 588 mmHg 23%
    08:00 +27°C° 0 mm 3 mps 589 mmHg 19%
    09:00 +29°C° 0 mm 3 mps 589 mmHg 16%
    10:00 +30°C° 0 mm 4 mps 590 mmHg 13%
    11:00 +33°C° 0 mm 4 mps 590 mmHg 10%
    12:00 +34°C° 0 mm 4 mps 590 mmHg 9%
    13:00 +34°C° 0 mm 3 mps 590 mmHg 8%
    14:00 +35°C° 0 mm 2 mps 589 mmHg 7%
    15:00 +36°C° 0 mm 2 mps 589 mmHg 7%
    16:00 +36°C° 0 mm 2 mps 589 mmHg 7%
    17:00 +36°C° 0 mm 2 mps 589 mmHg 7%
    18:00 +35°C° 0 mm 2 mps 588 mmHg 8%
    19:00 +32°C° 0 mm 2 mps 588 mmHg 10%
    20:00 +31°C° 0 mm 2 mps 588 mmHg 11%
    21:00 +30°C° 0 mm 2 mps 588 mmHg 16%
    22:00 +29°C° 0 mm 2 mps 588 mmHg 21%
    23:00 +27°C° 0 mm 2 mps 587 mmHg 25%

    23 July, Tuesday

    Time Temperature Precipitation Wind Pressure Humidity
    00:00 +27°C° 0 mm 2 mps 587 mmHg 26%
    01:00 +26°C° 0 mm 2 mps 587 mmHg 26%
    02:00 +26°C° 0 mm 3 mps 587 mmHg 27%
    03:00 +25°C° 0 mm 3 mps 586 mmHg 26%
    04:00 +25°C° 0 mm 3 mps 586 mmHg 26%
    05:00 +24°C° 0 mm 3 mps 586 mmHg 25%
    06:00 +25°C° 0 mm 3 mps 587 mmHg 24%
    07:00 +26°C° 0 mm 2 mps 587 mmHg 23%
    08:00 +27°C° 0 mm 2 mps 588 mmHg 22%
    09:00 +28°C° 0 mm 2 mps 588 mmHg 21%
    10:00 +30°C° 0 mm 1 mps 588 mmHg 20%
    11:00 +31°C° 0 mm 1 mps 589 mmHg 18%
    12:00 +32°C° 0 mm 1 mps 589 mmHg 17%
    13:00 +34°C° 0 mm 2 mps 588 mmHg 16%
    14:00 +35°C° 0 mm 2 mps 588 mmHg 14%
    15:00 +36°C° 0 mm 2 mps 588 mmHg 14%
    16:00 +36°C° 0 mm 3 mps 588 mmHg 13%
    17:00 +36°C° 0 mm 3 mps 588 mmHg 12%
    18:00 +36°C° 0 mm 3 mps 588 mmHg 13%
    19:00 +35°C° 0 mm 3 mps 588 mmHg 14%
    20:00 +34°C° 0 mm 3 mps 587 mmHg 14%
    21:00 +31°C° 0 mm 3 mps 587 mmHg 16%
    22:00 +30°C° 0 mm 3 mps 587 mmHg 18%
    23:00 +29°C° 0 mm 3 mps 587 mmHg 20%

    24 July, Wednesday

    Time Temperature Precipitation Wind Pressure Humidity
    00:00 +28°C° 0 mm 3 mps 586 mmHg 20%
    01:00 +27°C° 0 mm 3 mps 586 mmHg 21%
    02:00 +26°C° 0 mm 3 mps 586 mmHg 21%
    03:00 +25°C° 0 mm 3 mps 585 mmHg 22%
    04:00 +25°C° 0 mm 3 mps 585 mmHg 23%
    05:00 +24°C° 0 mm 3 mps 585 mmHg 24%
    06:00 +25°C° 0 mm 3 mps 586 mmHg 22%
    07:00 +26°C° 0 mm 3 mps 586 mmHg 20%
    08:00 +27°C° 0 mm 3 mps 587 mmHg 18%
    09:00 +29°C° 0 mm 3 mps 587 mmHg 16%
    10:00 +30°C° 0 mm 3 mps 588 mmHg 14%
    11:00 +33°C° 0 mm 3 mps 588 mmHg 11%
    12:00 +34°C° 0 mm 3 mps 588 mmHg 10%
    13:00 +35°C° 0 mm 2 mps 588 mmHg 10%
    14:00 +36°C° 0 mm 2 mps 588 mmHg 9%
    15:00 +36°C° 0 mm 2 mps 587 mmHg 9%
    16:00 +37°C° 0 mm 2 mps 587 mmHg 9%
    17:00 +37°C° 0 mm 3 mps 587 mmHg 9%
    18:00 +36°C° 0 mm 3 mps 587 mmHg 10%
    19:00 +34°C° 0 mm 3 mps 587 mmHg 10%
    20:00 +33°C° 0 mm 3 mps 587 mmHg 11%
    21:00 +32°C° 0 mm 4 mps 586 mmHg 13%
    22:00 +29°C° 0 mm 4 mps 586 mmHg 14%
    23:00 +27°C° 0 mm 4 mps 586 mmHg 16%
    Show more